�N����,����,�~����,�C��,���x,�C��,����,���ϕ���,�ő�u�ԕ���,�ő厞����,���˗�,�I�_���x,�n�����x,�ő啗���N��,DTYPE
"18/10/30","00:10",0.0,10.9,93.2,1007.8,313.9,1.3,2.2,321.9,0.00,9.9,15.4,"00:06:32",1
"18/10/30","00:20",0.0,11.1,93.1,1008.1,319.2,2.0,2.7,324.8,0.00,10.1,15.5,"00:16:08",1
"18/10/30","00:30",0.0,11.1,92.7,1007.8,295.0,1.3,1.8,320.8,0.00,10.0,15.2,"00:24:24",1
"18/10/30","00:40",0.0,11.2,92.4,1008.1,296.3,1.3,2.0,307.1,0.00,10.1,15.2,"00:33:04",1
"18/10/30","00:50",0.0,11.4,92.1,1008.1,316.9,1.5,2.1,310.0,0.00,10.2,15.5,"00:45:08",1
"18/10/30","01:00",0.0,11.5,91.8,1008.1,326.0,1.5,1.9,329.9,0.00,10.3,15.4,"00:58:42",1
"18/10/30","01:10",0.0,11.5,91.6,1008.1,296.5,1.1,2.0,325.5,0.00,10.2,15.3,"01:00:24",1
"18/10/30","01:20",0.0,11.5,91.9,1008.1,297.4,1.2,1.7,313.0,0.00,10.3,15.3,"01:15:48",1
"18/10/30","01:30",0.0,11.5,91.9,1008.1,302.7,1.0,1.4,305.8,0.00,10.3,15.5,"01:24:02",1
"18/10/30","01:40",0.0,11.6,91.7,1008.6,292.0,0.8,1.3,283.8,0.00,10.3,15.4,"01:30:24",1
"18/10/30","01:50",0.0,11.7,91.7,1008.6,305.9,1.2,2.2,318.2,0.00,10.4,15.5,"01:49:56",1
"18/10/30","02:00",0.0,11.9,91.5,1008.6,330.8,1.6,2.4,324.4,0.00,10.6,15.4,"01:50:10",1
"18/10/30","02:10",0.0,11.9,91.7,1008.6,283.0,0.8,1.4,302.9,0.00,10.6,15.4,"02:00:50",1
"18/10/30","02:20",0.0,11.9,91.7,1008.3,318.5,1.3,1.9,323.1,0.00,10.6,15.4,"02:14:54",1
"18/10/30","02:30",0.0,12.1,91.6,1008.6,313.8,1.1,2.0,333.5,0.00,10.8,15.4,"02:25:48",1
"18/10/30","02:40",0.0,12.1,91.7,1008.8,285.2,1.0,1.6,299.6,0.00,10.8,15.4,"02:33:42",1
"18/10/30","02:50",0.0,12.1,91.7,1008.8,296.0,1.0,1.7,314.3,0.00,10.8,15.1,"02:40:56",1
"18/10/30","03:00",0.0,12.1,91.6,1008.8,329.8,1.3,2.4,341.4,0.00,10.8,15.4,"02:51:38",1
"18/10/30","03:10",0.0,12.2,91.3,1008.8,323.8,1.3,2.5,338.4,0.00,10.9,15.5,"03:04:00",1
"18/10/30","03:20",0.0,12.1,91.5,1008.8,278.5,0.8,1.2,256.0,0.00,10.8,15.5,"03:14:00",1
"18/10/30","03:30",0.0,12.1,91.8,1008.3,308.4,1.1,2.1,334.3,0.00,10.8,15.5,"03:26:46",1
"18/10/30","03:40",0.0,12.3,91.3,1008.6,323.0,1.1,1.8,316.6,0.00,11.0,15.3,"03:35:04",1
"18/10/30","03:50",0.0,12.5,90.3,1008.6,323.4,1.0,1.6,344.2,0.00,11.0,15.4,"03:45:44",1
"18/10/30","04:00",0.0,12.3,90.6,1008.8,294.9,1.0,1.9,336.0,0.00,10.8,15.4,"03:57:58",1
"18/10/30","04:10",0.0,12.2,89.7,1008.8,283.0,1.1,2.2,241.8,0.00,10.6,15.5,"04:02:40",1
"18/10/30","04:20",0.0,12.0,89.5,1009.0,282.2,1.1,2.0,318.7,0.00,10.4,15.5,"04:17:10",1
"18/10/30","04:30",0.0,12.1,89.2,1009.0,270.3,0.6,1.1,303.9,0.00,10.4,15.3,"04:29:44",1
"18/10/30","04:40",0.0,11.7,88.5,1009.3,305.7,1.0,1.6,297.5,0.00,9.9,15.2,"04:36:26",1
"18/10/30","04:50",0.0,11.4,88.7,1009.0,328.9,1.7,2.5,335.3,0.00,9.6,15.2,"04:45:28",1
"18/10/30","05:00",0.0,11.0,89.8,1009.0,305.8,1.3,1.9,297.6,0.00,9.4,15.1,"04:50:48",1
"18/10/30","05:10",0.0,10.6,89.4,1009.3,316.1,0.8,1.6,338.8,0.00,9.0,15.0,"05:05:28",1
"18/10/30","05:20",0.0,10.0,90.9,1009.7,295.9,1.1,1.6,319.2,0.00,8.6,15.0,"05:11:04",1
"18/10/30","05:30",0.0,9.8,92.0,1009.5,324.6,1.8,2.6,323.4,0.00,8.6,14.9,"05:26:08",1
"18/10/30","05:40",0.0,9.6,92.7,1009.5,304.7,1.5,2.4,327.2,0.00,8.5,15.0,"05:30:40",1
"18/10/30","05:50",0.0,9.8,93.2,1009.5,325.8,1.6,2.2,317.8,0.00,8.8,14.8,"05:42:08",1
"18/10/30","06:00",0.0,9.2,92.7,1009.7,299.5,1.2,1.7,317.3,0.00,8.1,14.8,"05:55:04",1
"18/10/30","06:10",0.0,8.9,93.7,1009.7,312.1,1.6,2.5,325.6,0.00,8.0,14.6,"06:02:08",1
"18/10/30","06:20",0.0,8.8,94.6,1009.7,286.5,1.2,2.1,314.3,0.00,8.0,14.7,"06:10:32",1
"18/10/30","06:30",0.0,9.6,95.6,1009.7,284.9,1.5,2.2,306.3,0.00,9.0,14.7,"06:27:04",1
"18/10/30","06:40",0.0,10.1,94.8,1009.7,287.0,1.5,2.2,310.1,0.00,9.3,14.5,"06:39:52",1
"18/10/30","06:50",0.0,10.8,94.1,1009.7,324.1,2.3,3.5,322.0,0.00,9.9,14.3,"06:42:00",1
"18/10/30","07:00",0.0,11.3,92.6,1009.7,312.1,2.0,3.3,334.9,0.00,10.2,14.5,"06:52:16",1
"18/10/30","07:10",0.0,11.6,91.5,1010.2,312.0,2.2,4.0,339.1,0.00,10.3,14.5,"07:07:38",1
"18/10/30","07:20",0.0,11.8,90.0,1010.2,306.1,1.7,2.8,318.5,0.01,10.3,14.6,"07:13:24",1
"18/10/30","07:30",0.0,11.7,89.5,1010.4,335.3,0.8,1.9,324.3,0.01,10.1,14.5,"07:20:44",1
"18/10/30","07:40",0.0,12.1,89.6,1010.9,333.3,0.7,1.8,350.9,0.03,10.5,14.5,"07:30:32",1
"18/10/30","07:50",0.0,12.5,88.6,1010.7,248.6,0.5,1.2,264.7,0.04,10.7,14.7,"07:49:28",1
"18/10/30","08:00",0.0,13.6,84.5,1011.2,309.0,1.3,1.9,321.0,0.05,11.1,14.8,"07:52:24",1
"18/10/30","08:10",0.0,13.9,83.8,1011.2,327.6,0.7,1.9,3.8,0.08,11.2,14.6,"08:03:12",1
"18/10/30","08:20",0.0,14.2,83.3,1011.9,167.0,0.2,0.8,130.2,0.10,11.5,14.8,"08:16:56",1
"18/10/30","08:30",0.0,15.4,77.1,1011.6,279.9,0.5,1.3,309.6,0.13,11.5,15.0,"08:28:56",1
"18/10/30","08:40",0.0,16.5,71.3,1012.1,319.5,0.6,1.2,334.6,0.15,11.3,15.4,"08:39:28",1
"18/10/30","08:50",0.0,16.7,63.9,1011.9,272.6,1.1,3.1,230.2,0.18,9.9,15.3,"08:48:32",1
"18/10/30","09:00",0.0,17.0,62.4,1011.6,274.4,1.5,3.2,226.7,0.20,9.8,15.4,"08:58:08",1
"18/10/30","09:10",0.0,16.9,57.5,1011.6,274.5,1.5,4.5,262.9,0.23,8.5,15.5,"09:06:32",1
"18/10/30","09:20",0.0,17.3,58.3,1011.2,263.7,1.7,3.7,238.7,0.25,9.1,15.5,"09:16:40",1
"18/10/30","09:30",0.0,17.7,56.7,1011.2,294.9,1.7,3.4,321.7,0.28,9.0,15.8,"09:22:48",1
"18/10/30","09:40",0.0,17.6,54.3,1011.2,281.7,1.6,3.2,290.5,0.30,8.3,15.8,"09:33:04",1
"18/10/30","09:50",0.0,17.6,52.4,1010.9,281.5,2.1,5.0,214.7,0.32,7.8,16.1,"09:49:52",1
"18/10/30","10:00",0.0,18.0,52.0,1010.9,274.9,2.0,3.7,322.0,0.34,8.0,16.2,"09:53:28",1
"18/10/30","10:10",0.0,17.7,52.0,1011.2,314.0,1.8,5.4,344.3,0.36,7.8,16.3,"10:05:20",1
"18/10/30","10:20",0.0,18.4,52.4,1010.9,255.0,1.3,3.5,242.2,0.38,8.5,16.7,"10:15:12",1
"18/10/30","10:30",0.0,18.2,50.1,1010.4,267.9,2.0,4.8,238.6,0.39,7.7,16.9,"10:28:08",1
"18/10/30","10:40",0.0,18.1,54.3,1010.4,250.9,2.3,6.0,232.5,0.41,8.8,17.1,"10:39:44",1
"18/10/30","10:50",0.0,18.4,52.4,1010.4,261.6,1.7,4.5,229.5,0.44,8.5,17.4,"10:46:00",1
"18/10/30","11:00",0.0,18.9,51.3,1010.2,251.7,1.8,4.1,240.3,0.44,8.7,17.2,"10:52:56",1
"18/10/30","11:10",0.0,18.6,49.6,1010.2,270.2,2.0,4.5,228.2,0.44,7.9,17.6,"11:09:36",1
"18/10/30","11:20",0.0,18.7,49.5,1009.7,246.7,2.3,5.2,218.6,0.45,8.0,17.8,"11:18:48",1
"18/10/30","11:30",0.0,19.1,49.0,1009.7,234.5,2.5,5.1,236.5,0.47,8.2,17.9,"11:28:00",1
"18/10/30","11:40",0.0,20.0,47.1,1009.7,271.7,1.6,4.5,231.0,0.51,8.4,18.3,"11:30:16",1
"18/10/30","11:50",0.0,19.9,45.1,1009.0,273.5,1.7,5.0,224.0,0.53,7.7,18.5,"11:40:40",1
"18/10/30","12:00",0.0,19.6,46.6,1009.5,237.3,3.0,6.7,225.0,0.55,7.9,18.7,"11:53:12",1
"18/10/30","12:10",0.0,18.4,47.7,1009.5,274.0,1.5,3.7,310.4,0.13,7.2,18.7,"12:00:48",1
"18/10/30","12:20",0.0,18.5,45.9,1009.5,292.3,1.7,3.9,353.6,0.20,6.7,18.8,"12:13:04",1
"18/10/30","12:30",0.0,19.2,44.2,1009.5,312.8,1.7,4.5,356.8,0.26,6.8,18.9,"12:20:48",1
"18/10/30","12:40",0.0,18.4,46.6,1009.3,314.9,1.5,3.7,341.4,0.21,6.8,19.0,"12:33:52",1
"18/10/30","12:50",0.0,18.8,48.3,1008.8,259.8,1.3,4.7,256.2,0.18,7.7,18.8,"12:48:56",1
"18/10/30","13:00",0.0,18.0,48.2,1009.0,274.2,1.3,3.3,284.9,0.10,6.9,19.0,"12:51:20",1
"18/10/30","13:10",0.0,18.2,48.9,1009.5,306.3,1.5,3.5,349.1,0.10,7.3,18.7,"13:02:48",1
"18/10/30","13:20",0.0,18.1,46.9,1009.0,311.9,1.3,3.7,344.1,0.11,6.6,18.8,"13:17:52",1
"18/10/30","13:30",0.0,18.1,50.2,1009.0,280.7,1.0,1.9,331.6,0.10,7.6,18.8,"13:24:56",1
"18/10/30","13:40",0.0,17.8,49.9,1009.0,274.5,1.3,2.9,326.2,0.10,7.3,18.6,"13:30:56",1
"18/10/30","13:50",0.0,18.0,49.0,1009.3,274.8,1.2,2.8,227.5,0.11,7.2,18.7,"13:43:04",1
"18/10/30","14:00",0.0,18.3,50.1,1009.3,258.7,1.5,2.9,228.8,0.14,7.8,18.7,"13:54:00",1
"18/10/30","14:10",0.0,19.5,47.2,1009.0,268.8,1.7,4.4,239.2,0.37,8.0,18.7,"14:04:48",1
"18/10/30","14:20",0.0,19.2,47.3,1008.8,264.7,1.7,3.9,234.2,0.30,7.8,18.8,"14:10:16",1
"18/10/30","14:30",0.0,19.0,46.3,1009.5,260.3,2.1,3.9,257.4,0.29,7.3,18.8,"14:28:48",1
"18/10/30","14:40",0.0,18.5,45.7,1009.5,268.4,2.0,3.5,294.3,0.22,6.6,18.7,"14:39:20",1
"18/10/30","14:50",0.0,18.2,46.2,1009.3,261.7,1.8,4.1,230.3,0.10,6.5,18.8,"14:40:02",1
"18/10/30","15:00",0.0,19.0,47.5,1009.7,271.7,2.1,4.9,329.7,0.24,7.6,19.0,"14:53:52",1
"18/10/30","15:10",0.0,18.2,49.4,1009.5,266.3,1.8,5.5,334.9,0.13,7.5,18.8,"15:07:04",1
"18/10/30","15:20",0.0,18.2,49.8,1009.7,321.3,1.6,4.0,338.8,0.10,7.6,18.8,"15:18:24",1
"18/10/30","15:30",0.0,17.6,54.5,1009.7,350.0,2.3,5.2,342.0,0.05,8.4,18.9,"15:22:16",1
"18/10/30","15:40",0.0,17.2,56.7,1009.7,341.1,2.0,4.2,339.9,0.03,8.6,18.6,"15:36:16",1
"18/10/30","15:50",0.0,17.1,58.3,1009.7,339.5,2.0,3.4,339.2,0.04,8.9,18.5,"15:42:32",1
"18/10/30","16:00",0.0,16.9,59.1,1009.7,344.4,1.6,2.9,354.1,0.03,8.9,18.6,"15:51:44",1
"18/10/30","16:10",0.0,16.8,60.0,1010.4,337.0,1.5,3.1,339.7,0.03,9.0,18.3,"16:02:00",1
"18/10/30","16:20",0.0,16.6,60.8,1010.0,334.8,1.6,3.6,347.7,0.02,9.0,18.5,"16:14:16",1
"18/10/30","16:30",0.0,16.6,60.9,1010.2,322.4,1.1,1.7,338.3,0.02,9.1,18.4,"16:22:16",1
"18/10/30","16:40",0.0,16.7,61.3,1010.2,327.7,1.1,1.8,338.9,0.02,9.3,18.1,"16:39:28",1
"18/10/30","16:50",0.0,16.3,62.8,1010.4,340.3,1.5,2.7,343.0,0.00,9.2,18.1,"16:48:16",1
"18/10/30","17:00",0.0,16.0,63.4,1010.7,340.8,1.7,3.2,340.9,0.00,9.1,17.9,"16:59:04",1
"18/10/30","17:10",0.0,15.9,62.3,1010.4,350.5,2.0,3.9,336.7,0.00,8.7,17.9,"17:01:44",1
"18/10/30","17:20",0.0,15.6,62.3,1010.7,347.7,2.0,3.5,358.3,0.00,8.5,17.9,"17:16:16",1
"18/10/30","17:30",0.0,15.2,63.7,1010.9,332.1,1.3,2.4,342.7,0.00,8.4,17.7,"17:27:52",1
"18/10/30","17:40",0.0,14.8,66.0,1010.7,340.9,2.6,5.6,339.1,0.00,8.6,17.4,"17:39:22",1
"18/10/30","17:50",0.0,14.7,66.7,1011.2,335.2,2.8,5.5,322.5,0.00,8.6,17.3,"17:41:12",1
"18/10/30","18:00",0.0,14.6,67.6,1011.4,292.0,1.1,2.6,346.7,0.00,8.7,17.5,"17:50:24",1
"18/10/30","18:10",0.0,14.4,68.5,1011.9,294.4,1.3,3.5,263.8,0.00,8.7,17.3,"18:06:40",1
"18/10/30","18:20",0.0,14.1,69.7,1011.9,292.7,1.1,2.4,338.7,0.00,8.7,17.2,"18:19:28",1
"18/10/30","18:30",0.0,14.0,70.6,1012.1,321.4,1.8,3.7,338.8,0.00,8.8,17.1,"18:29:52",1
"18/10/30","18:40",0.0,14.0,70.8,1012.1,332.4,2.6,4.7,342.2,0.00,8.8,17.1,"18:37:28",1
"18/10/30","18:50",0.0,13.9,70.6,1012.3,325.5,2.6,4.2,332.1,0.00,8.7,17.0,"18:41:20",1
"18/10/30","19:00",0.0,13.9,70.6,1012.3,321.5,2.5,4.4,320.1,0.00,8.7,16.8,"18:58:24",1
"18/10/30","19:10",0.0,13.6,70.9,1012.6,327.9,2.0,3.6,343.1,0.00,8.5,16.7,"19:02:00",1
"18/10/30","19:20",0.0,13.3,71.2,1012.3,324.6,1.6,2.5,327.9,0.00,8.2,16.6,"19:15:28",1
"18/10/30","19:30",0.0,13.3,72.3,1012.3,317.4,2.1,3.6,329.2,0.00,8.5,16.5,"19:20:40",1
"18/10/30","19:40",0.0,13.0,72.4,1012.6,327.0,1.3,2.0,332.1,0.00,8.2,16.4,"19:30:40",1
"18/10/30","19:50",0.0,12.1,74.4,1012.3,333.9,1.6,2.6,321.7,0.00,7.7,16.7,"19:44:30",1
"18/10/30","20:00",0.0,11.3,79.6,1012.3,310.2,1.3,2.5,335.3,0.00,7.9,16.2,"19:54:42",1
"18/10/30","20:10",0.0,11.1,82.0,1012.3,319.6,1.7,2.5,340.0,0.00,8.2,16.1,"20:05:36",1
"18/10/30","20:20",0.0,10.7,83.1,1012.3,329.5,1.7,2.5,305.6,0.00,8.0,16.0,"20:10:16",1
"18/10/30","20:30",0.0,10.6,84.9,1012.1,325.8,1.8,2.4,318.9,0.00,8.2,15.9,"20:22:24",1
"18/10/30","20:40",0.0,10.4,85.0,1012.1,320.9,1.6,2.2,320.4,0.00,8.0,15.7,"20:30:24",1
"18/10/30","20:50",0.0,10.6,86.0,1012.3,334.7,1.7,2.4,343.4,0.00,8.4,15.8,"20:42:16",1
"18/10/30","21:00",0.0,10.6,85.9,1012.1,331.5,1.8,2.4,332.1,0.00,8.4,15.4,"20:51:52",1
"18/10/30","21:10",0.0,10.6,86.2,1012.3,330.0,1.6,2.0,318.7,0.00,8.4,15.9,"21:00:16",1
"18/10/30","21:20",0.0,10.2,85.5,1012.3,316.4,1.6,2.0,336.9,0.00,7.9,15.6,"21:11:36",1
"18/10/30","21:30",0.0,9.7,87.8,1012.8,295.5,1.3,2.0,317.0,0.00,7.8,15.5,"21:20:24",1
"18/10/30","21:40",0.0,9.5,88.6,1012.3,292.0,1.6,2.2,324.5,0.00,7.8,15.4,"21:35:04",1
"18/10/30","21:50",0.0,9.3,88.9,1012.3,304.5,1.5,2.4,311.9,0.00,7.6,15.3,"21:40:56",1
"18/10/30","22:00",0.0,9.4,89.7,1012.6,296.9,1.6,2.7,320.9,0.00,7.8,15.2,"21:53:20",1
"18/10/30","22:10",0.0,9.3,90.0,1012.6,311.8,2.1,2.7,320.6,0.00,7.8,15.3,"22:03:44",1
"18/10/30","22:20",0.0,9.2,90.3,1012.3,314.6,1.6,2.4,327.0,0.00,7.7,15.0,"22:11:20",1
"18/10/30","22:30",0.0,8.9,90.3,1012.3,317.0,1.8,2.7,319.6,0.00,7.4,15.0,"22:24:56",1
"18/10/30","22:40",0.0,8.8,92.3,1011.9,295.0,1.5,2.6,316.8,0.00,7.7,15.0,"22:37:20",1
"18/10/30","22:50",0.0,9.2,92.2,1012.3,319.6,1.7,2.4,321.7,0.00,8.0,14.9,"22:43:20",1
"18/10/30","23:00",0.0,9.5,91.4,1012.6,325.8,2.3,3.1,335.4,0.00,8.2,15.0,"22:58:32",1
"18/10/30","23:10",0.0,9.7,91.6,1012.3,326.0,2.3,3.3,330.4,0.00,8.4,14.9,"23:02:00",1
"18/10/30","23:20",0.0,9.8,91.1,1012.1,327.6,2.3,3.2,340.8,0.00,8.5,14.8,"23:15:36",1
"18/10/30","23:30",0.0,9.9,90.0,1012.3,329.5,2.2,3.5,334.8,0.00,8.4,14.7,"23:21:28",1
"18/10/30","23:40",0.0,9.6,89.9,1012.3,317.3,2.0,2.8,324.9,0.00,8.1,14.6,"23:35:44",1
"18/10/30","23:50",0.0,9.4,90.1,1012.1,325.2,1.7,2.4,329.3,0.00,7.9,14.7,"23:41:12",1
"18/10/30","24:00",0.0,9.2,90.2,1012.3,310.6,1.6,2.7,322.8,0.00,7.7,14.5,"23:52:32",1
